W5CGC Weather Reports


Display with metric or nautical units.
time (UTC)temp
F
wind
direction
speed
MPH
gust
MPH
rain 1hr
in
rain 24hr
in
rain mn
in
humidity
%
barometer
mb
20170924135504 76 218 0.0 7.0 0.00 0.00 0.00 84 1012.8
20170924133958 75 139 2.0 6.0 0.00 0.00 0.00 84 1012.5
20170924132454 75 221 0.0 3.0 0.00 0.00 0.00 85 1012.4
20170924130956 74 211 0.0 3.0 0.00 0.00 0.00 85 1012.2
20170924125506 74 218 0.0 2.0 0.00 0.00 0.00 86 1011.9
20170924123943 74 218 0.0 3.0 0.00 0.00 0.00 85 1011.7
20170924122445 74 211 0.0 2.0 0.00 0.00 0.00 85 1011.6
20170924120947 74 208 0.0 3.0 0.00 0.00 0.00 85 1011.5
20170924115439 74 226 0.0 2.0 0.00 0.00 0.00 84 1011.3
20170924113946 74 204 0.0 2.0 0.00 0.00 0.00 84 1011.2
20170924112439 74 226 1.0 4.0 0.00 0.00 0.00 83 1011.2
20170924110942 75 210 1.0 3.0 0.00 0.00 0.00 83 1011.3
20170924105435 75 214 0.0 2.0 0.00 0.00 0.00 82 1011.2
20170924104000 75 225 1.0 3.0 0.00 0.00 0.00 82 1011.2
20170924102433 76 219 1.0 4.0 0.00 0.00 0.00 81 1011.2
20170924100933 76 235 2.0 7.0 0.00 0.00 0.00 80 1011.2
20170924095450 76 225 1.0 4.0 0.00 0.00 0.00 80 1011.1
20170924093935 76 195 1.0 4.0 0.00 0.00 0.00 79 1011.3
20170924092429 76 239 2.0 4.0 0.00 0.00 0.00 79 1011.2
20170924090930 76 239 1.0 4.0 0.00 0.00 0.00 78 1011.3
20170924085429 76 214 1.0 3.0 0.00 0.00 0.00 78 1011.3
20170924083933 76 232 1.0 4.0 0.00 0.00 0.00 78 1011.4
20170924082429 77 232 0.0 2.0 0.00 0.00 0.00 77 1011.4
20170924080927 77 174 0.0 2.0 0.00 0.00 0.00 76 1011.3
20170924075442 78 248 0.0 2.0 0.00 0.00 0.00 74 1011.2
20170924073928 78 221 0.0 3.0 0.00 0.00 0.00 74 1011.1
20170924072432 78 224 0.0 2.0 0.00 0.00 0.00 73 1011.3
20170924070936 78 232 1.0 4.0 0.00 0.00 0.00 71 1011.2
20170924065422 78 210 1.0 3.0 0.00 0.00 0.00 71 1011.2
20170924063918 78 225 0.0 3.0 0.00 0.00 0.00 71 1011.0
20170924062423 78 232 0.0 2.0 0.00 0.00 0.00 71 1011.1
20170924060918 78 235 0.0 2.0 0.00 0.00 0.00 72 1010.9
20170924055415 78 143 0.0 1.0 0.00 0.00 0.00 72 1010.9
20170924053912 79 143 0.0 1.0 0.00 0.00 0.00 70 1010.9
20170924052416 80 144 0.0 1.0 0.00 0.00 0.00 69 1011.0
20170924050910 80 143 0.0 1.0 0.00 0.00 0.00 67 1010.9
20170924045405 81 201 0.0 4.0 0.00 0.00 0.00 66 1010.6
20170924043905 81 204 0.0 5.0 0.00 0.00 0.00 66 1010.7
20170924042416 81 226 0.0 2.0 0.00 0.00 0.00 66 1010.7
20170924040905 81 224 0.0 3.0 0.00 0.00 0.00 65 1010.8
20170924035402 82 206 0.0 3.0 0.00 0.00 0.00 63 1010.7
20170924033906 83 218 1.0 5.0 0.00 0.00 0.00 63 1010.6
20170924032535 83 224 0.0 3.0 0.00 0.00 0.00 62 1010.5
20170924030903 83 260 1.0 3.0 0.00 0.00 0.00 61 1010.4
20170924025408 83 200 0.0 2.0 0.00 0.00 0.00 62 1010.4
20170924023820 83 229 0.0 2.0 0.00 0.00 0.00 61 1010.6
20170924022316 83 94 0.0 1.0 0.00 0.00 0.00 61 1010.5
20170924020841 83 195 0.0 1.0 0.00 0.00 0.00 60 1010.6
20170924015350 84 156 0.0 1.0 0.00 0.00 0.00 59 1010.6
20170924013840 85 77 0.0 4.0 0.00 0.00 0.00 58 1010.6
20170924012356 85 138 0.0 2.0 0.00 0.00 0.00 57 1010.4
20170924010858 86 97 0.0 2.0 0.00 0.00 0.00 56 1010.3
20170924005345 86 87 1.0 4.0 0.00 0.00 0.00 54 1010.0
20170924003841 87 224 0.0 2.0 0.00 0.00 0.00 53 1010.0
20170924002341 88 172 0.0 3.0 0.00 0.00 0.00 52 1010.0
20170924000839 88 145 1.0 3.0 0.00 0.00 0.00 51 1009.9
20170923235341 89 94 2.0 4.0 0.00 0.00 0.00 50 1009.8
20170923233836 90 129 2.0 5.0 0.00 0.00 0.00 48 1009.7
20170923232338 90 211 2.0 6.0 0.00 0.00 0.00 49 1009.7
20170923230838 90 183 1.0 9.0 0.00 0.00 0.00 48 1009.8
20170923225333 91 223 2.0 6.0 0.00 0.00 0.00 48 1009.7
20170923223833 91 86 1.0 7.0 0.00 0.00 0.00 48 1009.8
20170923222331 91 223 0.0 8.0 0.00 0.00 0.00 49 1010.0
20170923220830 91 150 1.0 8.0 0.00 0.00 0.00 48 1010.1
20170923215328 91 205 1.0 5.0 0.00 0.00 0.00 48 1010.2
20170923213830 92 134 2.0 6.0 0.00 0.00 0.00 47 1010.4
20170923212344 93 349 1.0 6.0 0.00 0.00 0.00 50 1010.6
20170923210831 93 139 1.0 6.0 0.00 0.00 0.00 46 1010.8
20170923205332 93 122 3.0 10.0 0.00 0.00 0.00 45 1010.9
20170923203820 92 154 3.0 18.0 0.00 0.00 0.00 48 1011.0
20170923202355 92 224 3.0 11.0 0.00 0.00 0.00 48 1011.1
20170923200814 91 79 1.0 7.0 0.00 0.00 0.00 52 1011.3
20170923195319 92 64 2.0 7.0 0.00 0.00 0.00 50 1011.6
20170923193810 91 202 4.0 16.0 0.00 0.00 0.00 51 1011.7
20170923192309 91 105 2.0 8.0 0.00 0.00 0.00 53 1012.0
20170923190817 91 120 3.0 8.0 0.00 0.00 0.00 54 1012.1
20170923185315 91 165 3.0 13.0 0.00 0.00 0.00 53 1012.4
20170923183815 90 201 2.0 8.0 0.00 0.00 0.00 56 1012.6
20170923182305 90 226 1.0 11.0 0.00 0.00 0.00 57 1012.7
20170923180820 89 77 2.0 5.0 0.00 0.00 0.00 59 1012.9
20170923175312 89 211 2.0 10.0 0.00 0.00 0.00 60 1013.0
20170923173810 88 223 5.0 11.0 0.00 0.00 0.00 59 1013.3
20170923172312 87 235 4.0 10.0 0.00 0.00 0.00 62 1013.5
20170923170805 87 211 3.0 10.0 0.00 0.00 0.00 64 1013.6
20170923165303 85 205 2.0 8.0 0.00 0.00 0.00 67 1013.7
20170923163804 86 134 3.0 9.0 0.00 0.00 0.00 65 1013.9
20170923162302 85 197 4.0 11.0 0.00 0.00 0.00 68 1013.9
20170923160812 85 219 4.0 11.0 0.00 0.00 0.00 68 1014.0
20170923155300 84 205 2.0 9.0 0.00 0.00 0.00 71 1014.1
20170923153756 83 115 1.0 7.0 0.00 0.00 0.00 73 1014.1
20170923152253 82 198 2.0 6.0 0.00 0.00 0.00 74 1014.1
20170923150750 81 136 0.0 6.0 0.00 0.00 0.00 77 1014.1
20170923145253 80 181 2.0 6.0 0.00 0.00 0.00 78 1014.0
20170923143751 79 225 2.0 7.0 0.00 0.00 0.00 80 1014.0
20170923142301 78 177 0.0 3.0 0.00 0.00 0.00 82 1013.9
20170923140745 77 233 1.0 4.0 0.00 0.00 0.00 83 1013.8